[[{"header":{"parameterUnit":"m.s-1","parameterCategory":1,"la1":30.2992,"la2":30.254,"lo1":-89.0895,"lo2":-89.0443,"dy":0.0025,"dx":0.0025,"nx":19,"ny":19,"refTime":"2026-04-30T09:00:00:Z","depth":0,"parameterNumber":2,"parameterNumberName":"U-component_of_WINDS"},"data":[0,0,0,-1.5798,-1.5803,-1.6097,-1.6099,-1.6436,-1.6438,0,0,0,0,0,0,0,0,0,0,0,-1.5685,-1.5686,-1.5797,-1.5804,-1.6097,-1.6099,-1.6435,-1.6438,0,0,0,0,0,0,0,0,0,0,0,-1.5684,-1.5686,-1.5687,-1.5805,-1.6097,-1.6099,-1.6435,-1.6227,0,0,0,0,0,0,0,0,0,0,-1.5949,-1.5818,-1.5685,-1.5687,-1.5806,-1.6096,-1.6099,-1.6218,-1.624,-1.6285,0,-1.6316,0,-1.6382,-1.6458,-1.6459,0,0,0,-1.5824,-1.58,-1.5902,-1.5687,-1.5809,-1.6096,-1.597,-1.6231,-1.6256,-1.6314,-1.6321,-1.6335,-1.6388,-1.646,-1.6462,-1.6649,-1.6649,0,0,-1.5807,-1.5724,-1.5885,-1.5917,-1.5867,-1.5961,-1.5979,-1.6247,-1.625,-1.6323,-1.6344,-1.6393,-1.6462,-1.6464,-1.665,-1.6649,0,0,0,-1.5747,-1.5711,-1.5809,-1.5902,-1.5958,-1.5969,-1.599,-1.6238,-1.6276,-1.6348,-1.6397,-1.6464,-1.6467,-1.665,-1.665,-1.6564,0,0,0,-1.5739,-1.5677,-1.5801,-1.5752,-1.5952,-1.6101,-1.5974,-1.6258,-1.6291,-1.6395,-1.6464,-1.647,-1.665,-1.665,-1.6566,-1.6536,0,0,0,-1.5674,-1.567,-1.5703,-1.5747,-1.587,-1.6099,-1.6153,-1.6267,-1.632,-1.6459,-1.6471,-1.665,-1.665,-1.6569,-1.6541,-1.6561,0,0,0,-1.5582,-1.5623,-1.57,-1.5766,-1.5867,-1.6042,-1.6152,-1.6288,-1.6397,-1.6465,-1.665,-1.665,-1.6569,-1.6543,-1.6563,-1.6561,-1.6553,0,0,-1.5587,-1.5621,-1.5666,-1.5744,-1.5883,-1.6005,-1.6134,-1.6315,-1.6406,-1.6564,-1.657,-1.6565,-1.6541,-1.6561,-1.6539,-1.6531,0,0,0,-1.564,-1.5671,-1.5726,-1.5826,-1.5964,-1.608,-1.625,-1.6318,-1.6456,-1.6469,-1.6582,-1.657,-1.6585,-1.6588,-1.6582,-1.6601,-1.6648,-1.6648,-1.6648,-1.5525,-1.5639,-1.5722,-1.5871,-1.5966,-1.6142,-1.623,-1.6352,-1.644,-1.6464,-1.6511,-1.6483,-1.6484,-1.648,-1.6498,-1.6521,-1.6521,-1.6521,-1.652,-1.5542,-1.5603,-1.572,-1.5841,-1.5963,-1.6068,-1.624,-1.6298,-1.6415,-1.6457,-1.6477,-1.6511,-1.6468,-1.649,-1.6515,-1.6516,-1.6517,-1.6517,-1.6518,-1.5477,-1.5527,-1.5608,-1.5764,-1.5873,-1.6026,-1.6131,-1.624,-1.6342,-1.6361,-1.6423,-1.6424,-1.6439,-1.6383,-1.6383,-1.6383,-1.6383,-1.6383,-1.6383,-1.5377,-1.5472,-1.5547,-1.5698,-1.5777,-1.5895,-1.6074,-1.6156,-1.6274,-1.6344,-1.6346,-1.643,-1.6443,-1.6443,-1.6382,-1.6382,-1.6382,-1.6382,-1.6382,-1.5347,-1.5372,-1.5487,-1.5566,-1.5754,-1.5855,-1.5993,-1.6151,-1.6235,-1.6284,-1.6367,-1.6359,-1.6401,-1.6407,-1.6408,-1.6342,-1.6342,-1.6342,-1.6342,-1.5291,-1.5324,-1.5466,-1.5586,-1.5716,-1.5853,-1.5982,-1.6124,-1.6274,-1.6333,-1.636,-1.6371,-1.6372,-1.6414,-1.6419,-1.6422,-1.6361,-1.6361,-1.6361,-1.5278,-1.5329,-1.5416,-1.5562,-1.5718,-1.585,-1.5976,-1.6112,-1.6288,-1.6364,-1.6383,-1.6382,-1.6401,-1.6401,-1.6473,-1.6479,-1.6486,0,0]},{"header":{"parameterUnit":"m.s-1","parameterCategory":1,"la1":30.2992,"la2":30.254,"lo1":-89.0895,"lo2":-89.0443,"dy":0.0025,"dx":0.0025,"nx":19,"ny":19,"refTime":"2026-04-30T09:00:00:Z","depth":0,"parameterNumber":3,"parameterNumberName":"V-component_of_WINDS"},"data":[0,0,0,1.9853,1.9853,1.9825,1.9824,1.9867,1.9868,0,0,0,0,0,0,0,0,0,0,0,1.9907,1.9909,1.9853,1.9854,1.9825,1.9824,1.9867,1.9868,0,0,0,0,0,0,0,0,0,0,0,1.9906,1.9908,1.9911,1.9854,1.9825,1.9824,1.9866,1.986,0,0,0,0,0,0,0,0,0,0,1.9875,1.9969,1.9908,1.9911,1.9854,1.9825,1.9824,1.9859,1.9861,1.9913,0,1.9969,0,1.9919,1.9876,1.9876,0,0,0,1.982,1.9968,1.9918,1.9911,1.9854,1.9825,1.9828,1.9859,1.9862,1.9916,1.9969,1.9968,1.992,1.9876,1.9877,2.0279,2.0283,0,0,1.9822,1.9928,1.9917,1.9922,1.9929,1.983,1.9828,1.9859,1.9925,1.9969,1.9968,1.9921,1.9877,1.9878,2.0276,2.028,0,0,0,1.9849,1.9931,1.9878,1.9922,1.9911,1.983,1.9828,1.9924,1.9898,1.9968,1.9921,1.9878,1.9879,2.0272,2.0278,2.0548,0,0,0,1.9848,1.9945,1.988,1.9945,1.9912,1.9917,1.9893,1.9896,1.9896,1.9921,1.9878,1.988,2.0268,2.0275,2.0532,2.0658,0,0,0,1.9894,1.995,1.9961,1.9951,1.9942,1.9914,1.9888,1.9893,1.9869,1.9876,1.9881,2.0265,2.0274,2.0518,2.0635,2.0793,0,0,0,1.9973,2.0205,1.9968,2.0208,1.9943,2.0081,1.9887,1.9985,2.0023,1.9878,2.0269,2.0277,2.0513,2.062,2.0779,2.0944,2.1023,0,0,2.0325,2.0252,2.0384,2.0171,2.0377,2.0076,2.0322,2.026,2.0166,2.0248,2.0256,2.0537,2.0633,2.079,2.1432,2.1496,0,0,0,2.0532,2.0629,2.066,2.0699,2.0655,2.0626,2.0513,2.0489,2.0552,2.0228,2.0634,2.0688,2.0776,2.085,2.0904,2.0972,2.0316,2.0315,2.0314,2.1183,2.1045,2.1256,2.1116,2.1157,2.1036,2.1057,2.1004,2.0858,2.0956,2.0979,2.1385,2.1476,2.1516,2.1588,2.1056,2.1058,2.1058,2.1059,2.1684,2.1798,2.1594,2.1724,2.158,2.1689,2.1582,2.1474,2.1555,2.1357,2.1427,2.1223,2.159,2.1646,2.1078,2.1075,2.1072,2.1071,2.1069,2.2094,2.2124,2.2089,2.2128,2.2176,2.2026,2.2112,2.1978,2.1853,2.1922,2.1931,2.1926,2.1903,2.1936,2.1937,2.1939,2.194,2.1941,2.1942,2.2532,2.2483,2.257,2.2539,2.2545,2.2536,2.2416,2.2419,2.2387,2.2283,2.2282,2.2126,2.1651,2.1534,2.1963,2.1959,2.1956,2.1954,2.1953,2.3089,2.294,2.3076,2.3082,2.3033,2.3088,2.2914,2.2931,2.2914,2.2961,2.2788,2.2459,2.2375,2.2331,2.2233,2.2817,2.2817,2.2817,2.2817,2.3434,2.3377,2.3482,2.35,2.3502,2.3358,2.3516,2.3425,2.3308,2.3288,2.3184,2.3043,2.3004,2.2943,2.2886,2.2792,2.3505,2.3506,2.3507,2.3767,2.3704,2.3863,2.3743,2.3694,2.3657,2.38,2.3829,2.3666,2.3532,2.327,2.3241,2.3011,2.2944,2.2805,2.2719,2.2544,0,0]}]]